| time (UTC) | temp F | wind direction | speed MPH | gust MPH | rain 1hr in | rain 24hr in | rain mn in | humidity % | barometer mb |
| 20260509101025 | 52 | 0.0 | 0.0 | 0.00 | 0.04 | 0.04 | 99 | 1009.4 | |
| 20260509100029 | 53 | 0.0 | 0.0 | 0.00 | 0.04 | 0.04 | 99 | 1009.4 | |
| 20260509095017 | 53 | 0.0 | 0.0 | 0.00 | 0.04 | 0.04 | 99 | 1009.5 | |
| 20260509094022 | 53 | 0.0 | 0.0 | 0.00 | 0.04 | 0.04 | 99 | 1009.5 | |
| 20260509093027 | 54 | 0.0 | 0.0 | 0.00 | 0.04 | 0.04 | 99 | 1009.7 | |
| 20260509092032 | 54 | 0.0 | 0.0 | 0.00 | 0.04 | 0.04 | 99 | 1009.6 | |
| 20260509091020 | 55 | 0.0 | 0.0 | 0.00 | 0.04 | 0.04 | 99 | 1009.6 | |
| 20260509090046 | 55 | 0.0 | 0.0 | 0.00 | 0.04 | 0.04 | 99 | 1009.8 | |
| 20260509085030 | 55 | 0.0 | 0.0 | 0.00 | 0.04 | 0.04 | 99 | 1010.0 | |
| 20260509084018 | 55 | 0.0 | 0.0 | 0.00 | 0.04 | 0.04 | 98 | 1010.1 | |
| 20260509083024 | 55 | 128 | 0.0 | 2.0 | 0.00 | 0.04 | 0.04 | 98 | 1010.1 |
| 20260509082028 | 55 | 0.0 | 0.0 | 0.01 | 0.04 | 0.04 | 98 | 1009.9 | |
| 20260509081016 | 55 | 0.0 | 0.0 | 0.02 | 0.04 | 0.04 | 97 | 1009.8 | |
| 20260509080042 | 56 | 43 | 0.0 | 1.0 | 0.02 | 0.04 | 0.04 | 97 | 1009.7 |
| 20260509075026 | 56 | 0.0 | 0.0 | 0.04 | 0.04 | 0.04 | 97 | 1009.7 | |
| 20260509074112 | 57 | 37 | 0.0 | 1.0 | 0.04 | 0.04 | 0.04 | 96 | 1009.6 |
| 20260509073039 | 57 | 33 | 0.0 | 1.0 | 0.04 | 0.04 | 0.04 | 94 | 1009.9 |
| 20260509072024 | 58 | 0.0 | 0.0 | 0.03 | 0.03 | 0.03 | 91 | 1010.2 | |
| 20260509071028 | 58 | 270 | 1.0 | 2.0 | 0.02 | 0.02 | 0.02 | 89 | 1010.4 |
| 20260509070016 | 60 | 288 | 2.0 | 4.0 | 0.02 | 0.02 | 0.02 | 85 | 1010.7 |
| 20260509065042 | 61 | 270 | 3.0 | 6.0 | 0.00 | 0.00 | 0.00 | 78 | 1010.2 |
| 20260509064026 | 61 | 303 | 1.0 | 2.0 | 0.00 | 0.00 | 0.00 | 77 | 1009.8 |
| 20260509063032 | 61 | 263 | 1.0 | 4.0 | 0.00 | 0.00 | 0.00 | 77 | 1009.9 |
| 20260509062019 | 61 | 208 | 1.0 | 4.0 | 0.00 | 0.00 | 0.00 | 76 | 1009.7 |
| 20260509061024 | 61 | 217 | 1.0 | 2.0 | 0.00 | 0.00 | 0.00 | 75 | 1009.9 |
| 20260509060030 | 61 | 222 | 1.0 | 2.0 | 0.00 | 0.00 | 0.00 | 76 | 1009.9 |
| 20260509055037 | 61 | 230 | 1.0 | 2.0 | 0.00 | 0.00 | 0.00 | 77 | 1009.8 |
| 20260509054022 | 61 | 144 | 1.0 | 3.0 | 0.00 | 0.00 | 0.00 | 77 | 1009.8 |
| 20260509053027 | 61 | 208 | 1.0 | 3.0 | 0.00 | 0.00 | 0.00 | 76 | 1010.0 |
| 20260509052032 | 61 | 111 | 1.0 | 3.0 | 0.00 | 0.00 | 0.00 | 76 | 1010.1 |
| 20260509051021 | 61 | 115 | 1.0 | 2.0 | 0.00 | 0.00 | 0.00 | 75 | 1010.0 |
| 20260509050026 | 61 | 86 | 0.0 | 2.0 | 0.00 | 0.00 | 0.00 | 77 | 1010.1 |
| 20260509045030 | 61 | 108 | 0.0 | 1.0 | 0.00 | 0.00 | 0.00 | 77 | 1010.1 |
| 20260509044018 | 61 | 56 | 0.0 | 1.0 | 0.00 | 0.00 | 0.00 | 76 | 1010.1 |
| 20260509043023 | 61 | 292 | 0.0 | 1.0 | 0.00 | 0.00 | 0.00 | 76 | 1010.5 |
| 20260509042028 | 60 | 208 | 0.0 | 1.0 | 0.00 | 0.00 | 0.00 | 77 | 1010.5 |
| 20260509041017 | 59 | 0.0 | 0.0 | 0.00 | 0.00 | 0.00 | 79 | 1010.4 | |
| 20260509040021 | 58 | 286 | 0.0 | 1.0 | 0.00 | 0.00 | 0.00 | 86 | 1010.7 |
| 20260509035026 | 58 | 300 | 0.0 | 1.0 | 0.00 | 0.00 | 0.00 | 87 | 1010.9 |
| 20260509034030 | 58 | 0.0 | 0.0 | 0.00 | 0.00 | 0.00 | 86 | 1010.6 | |
| 20260509033019 | 57 | 0.0 | 0.0 | 0.00 | 0.00 | 0.00 | 86 | 1010.6 | |
| 20260509032024 | 57 | 0.0 | 0.0 | 0.00 | 0.00 | 0.00 | 87 | 1010.7 | |
| 20260509031028 | 57 | 0.0 | 0.0 | 0.00 | 0.00 | 0.00 | 87 | 1010.8 | |
| 20260509030016 | 57 | 0.0 | 0.0 | 0.00 | 0.00 | 0.00 | 86 | 1010.7 | |
| 20260509025021 | 58 | 0.0 | 0.0 | 0.00 | 0.00 | 0.00 | 82 | 1010.7 | |
| 20260509024027 | 58 | 0.0 | 0.0 | 0.00 | 0.00 | 0.00 | 79 | 1010.6 | |
| 20260509023031 | 58 | 0.0 | 0.0 | 0.00 | 0.00 | 0.00 | 80 | 1010.7 | |
| 20260509022020 | 58 | 0.0 | 0.0 | 0.00 | 0.00 | 0.00 | 81 | 1010.5 | |
| 20260509021024 | 58 | 0.0 | 0.0 | 0.00 | 0.00 | 0.00 | 82 | 1010.5 | |
| 20260509020029 | 59 | 0.0 | 0.0 | 0.00 | 0.00 | 0.00 | 80 | 1010.4 | |
| 20260509015018 | 59 | 0.0 | 0.0 | 0.00 | 0.00 | 0.00 | 79 | 1010.3 | |
| 20260509014023 | 60 | 0.0 | 0.0 | 0.00 | 0.00 | 0.00 | 77 | 1010.2 | |
| 20260509013048 | 61 | 0.0 | 0.0 | 0.00 | 0.00 | 0.00 | 74 | 1010.4 | |
| 20260509012033 | 62 | 0.0 | 0.0 | 0.00 | 0.00 | 0.00 | 71 | 1010.4 | |
| 20260509011021 | 64 | 0.0 | 0.0 | 0.00 | 0.00 | 0.00 | 69 | 1010.4 | |
| 20260509010026 | 66 | 0.0 | 0.0 | 0.00 | 0.00 | 0.00 | 62 | 1010.5 | |
| 20260509005030 | 67 | 0.0 | 0.0 | 0.00 | 0.00 | 0.00 | 59 | 1010.6 | |
| 20260509004019 | 68 | 299 | 0.0 | 1.0 | 0.00 | 0.00 | 0.00 | 57 | 1010.7 |
| 20260509003024 | 70 | 202 | 1.0 | 3.0 | 0.00 | 0.00 | 0.00 | 54 | 1010.9 |
| 20260509002049 | 70 | 203 | 2.0 | 3.0 | 0.00 | 0.00 | 0.00 | 53 | 1011.0 |
| 20260509001016 | 71 | 201 | 3.0 | 4.0 | 0.00 | 0.00 | 0.00 | 51 | 1011.0 |
| 20260509000021 | 71 | 209 | 2.0 | 6.0 | 0.00 | 0.00 | 0.00 | 51 | 1010.9 |
| 20260508235026 | 72 | 192 | 2.0 | 6.0 | 0.00 | 0.00 | 0.00 | 52 | 1010.9 |
| 20260508234031 | 72 | 184 | 3.0 | 6.0 | 0.00 | 0.00 | 0.00 | 51 | 1011.1 |
| 20260508233020 | 72 | 195 | 3.0 | 7.0 | 0.00 | 0.00 | 0.00 | 50 | 1011.1 |
| 20260508232044 | 73 | 203 | 3.0 | 7.0 | 0.00 | 0.00 | 0.00 | 49 | 1011.1 |
| 20260508231029 | 73 | 225 | 4.0 | 7.0 | 0.00 | 0.00 | 0.00 | 48 | 1011.1 |
| 20260508230017 | 74 | 183 | 2.0 | 7.0 | 0.00 | 0.00 | 0.00 | 48 | 1011.3 |
| 20260508225022 | 74 | 195 | 2.0 | 6.0 | 0.00 | 0.00 | 0.00 | 50 | 1011.4 |
| 20260508224027 | 74 | 129 | 2.0 | 6.0 | 0.00 | 0.00 | 0.00 | 49 | 1011.3 |
| 20260508223052 | 74 | 201 | 3.0 | 9.0 | 0.00 | 0.00 | 0.00 | 49 | 1011.3 |
| 20260508222100 | 74 | 219 | 2.0 | 7.0 | 0.00 | 0.00 | 0.00 | 49 | 1011.3 |
| 20260508221045 | 74 | 197 | 3.0 | 8.0 | 0.00 | 0.00 | 0.00 | 48 | 1011.3 |
| 20260508220029 | 75 | 181 | 3.0 | 8.0 | 0.00 | 0.00 | 0.00 | 49 | 1011.6 |
| 20260508215017 | 75 | 245 | 3.0 | 10.0 | 0.00 | 0.00 | 0.00 | 48 | 1011.6 |
| 20260508214043 | 75 | 181 | 3.0 | 7.0 | 0.00 | 0.00 | 0.00 | 49 | 1011.6 |
| 20260508213109 | 75 | 245 | 3.0 | 10.0 | 0.00 | 0.00 | 0.00 | 48 | 1011.9 |
| 20260508212053 | 75 | 176 | 2.0 | 6.0 | 0.00 | 0.00 | 0.00 | 47 | 1012.0 |
| 20260508211020 | 75 | 209 | 1.0 | 4.0 | 0.00 | 0.00 | 0.00 | 49 | 1012.3 |
| 20260508210026 | 74 | 203 | 2.0 | 6.0 | 0.00 | 0.00 | 0.00 | 49 | 1011.9 |
| 20260508205031 | 74 | 156 | 3.0 | 7.0 | 0.00 | 0.00 | 0.00 | 50 | 1012.0 |
| 20260508204019 | 74 | 225 | 3.0 | 9.0 | 0.00 | 0.00 | 0.00 | 50 | 1012.2 |
| 20260508203044 | 75 | 242 | 4.0 | 11.0 | 0.00 | 0.00 | 0.00 | 50 | 1012.4 |
| 20260508202028 | 75 | 193 | 2.0 | 6.0 | 0.00 | 0.00 | 0.00 | 51 | 1012.5 |
| 20260508201036 | 74 | 181 | 3.0 | 9.0 | 0.00 | 0.00 | 0.00 | 51 | 1012.6 |
| 20260508195026 | 74 | 179 | 3.0 | 7.0 | 0.00 | 0.00 | 0.00 | 51 | 1012.7 |
| 20260508194031 | 74 | 243 | 5.0 | 9.0 | 0.00 | 0.00 | 0.00 | 51 | 1013.0 |
| 20260508193021 | 73 | 203 | 3.0 | 8.0 | 0.00 | 0.00 | 0.00 | 51 | 1013.1 |
| 20260508192025 | 74 | 246 | 4.0 | 14.0 | 0.00 | 0.00 | 0.00 | 52 | 1013.4 |
| 20260508191029 | 73 | 217 | 2.0 | 6.0 | 0.00 | 0.00 | 0.00 | 53 | 1013.3 |
| 20260508190017 | 74 | 238 | 3.0 | 10.0 | 0.00 | 0.00 | 0.00 | 52 | 1013.7 |
| 20260508185022 | 73 | 203 | 3.0 | 7.0 | 0.00 | 0.00 | 0.00 | 51 | 1014.1 |
| 20260508184047 | 73 | 233 | 3.0 | 8.0 | 0.00 | 0.00 | 0.00 | 53 | 1014.1 |
| 20260508183032 | 72 | 244 | 6.0 | 11.0 | 0.00 | 0.00 | 0.00 | 53 | 1014.3 |
| 20260508182020 | 72 | 248 | 3.0 | 9.0 | 0.00 | 0.00 | 0.00 | 53 | 1014.7 |
| 20260508181025 | 72 | 150 | 3.0 | 7.0 | 0.00 | 0.00 | 0.00 | 55 | 1014.6 |
| 20260508180030 | 71 | 206 | 3.0 | 7.0 | 0.00 | 0.00 | 0.00 | 54 | 1014.7 |
| 20260508175018 | 71 | 248 | 3.0 | 10.0 | 0.00 | 0.00 | 0.00 | 55 | 1014.9 |
| 20260508174043 | 71 | 205 | 4.0 | 10.0 | 0.00 | 0.00 | 0.00 | 55 | 1015.0 |
| 20260508173029 | 71 | 251 | 5.0 | 13.0 | 0.00 | 0.00 | 0.00 | 55 | 1015.1 |
| 20260508172034 | 70 | 207 | 4.0 | 9.0 | 0.00 | 0.00 | 0.00 | 56 | 1015.2 |
| 20260508171020 | 70 | 250 | 6.0 | 8.0 | 0.00 | 0.00 | 0.00 | 56 | 1015.1 |
| 20260508170025 | 70 | 233 | 4.0 | 13.0 | 0.00 | 0.00 | 0.00 | 56 | 1015.5 |
| 20260508165030 | 69 | 255 | 4.0 | 9.0 | 0.00 | 0.00 | 0.00 | 57 | 1015.7 |
| 20260508164019 | 69 | 246 | 3.0 | 9.0 | 0.00 | 0.00 | 0.00 | 57 | 1015.8 |
| 20260508163023 | 69 | 217 | 4.0 | 10.0 | 0.00 | 0.00 | 0.00 | 58 | 1015.9 |
| 20260508162028 | 69 | 241 | 3.0 | 11.0 | 0.00 | 0.00 | 0.00 | 58 | 1016.0 |
| 20260508161016 | 68 | 192 | 4.0 | 7.0 | 0.00 | 0.00 | 0.00 | 59 | 1016.2 |
| 20260508160022 | 68 | 176 | 4.0 | 8.0 | 0.00 | 0.00 | 0.00 | 59 | 1016.3 |
| 20260508155026 | 68 | 142 | 2.0 | 9.0 | 0.00 | 0.00 | 0.00 | 59 | 1016.4 |
| 20260508154031 | 68 | 230 | 3.0 | 9.0 | 0.00 | 0.00 | 0.00 | 59 | 1016.6 |
| 20260508153020 | 67 | 225 | 3.0 | 8.0 | 0.00 | 0.00 | 0.00 | 60 | 1016.7 |
| 20260508152024 | 67 | 205 | 3.0 | 9.0 | 0.00 | 0.00 | 0.00 | 59 | 1016.9 |
| 20260508151029 | 66 | 216 | 2.0 | 4.0 | 0.00 | 0.00 | 0.00 | 63 | 1017.0 |
| 20260508150038 | 66 | 191 | 3.0 | 8.0 | 0.00 | 0.00 | 0.00 | 62 | 1017.0 |
| 20260508145043 | 65 | 199 | 2.0 | 9.0 | 0.00 | 0.00 | 0.00 | 62 | 1017.1 |
| 20260508144027 | 65 | 244 | 3.0 | 9.0 | 0.00 | 0.00 | 0.00 | 63 | 1017.5 |
| 20260508143032 | 64 | 210 | 2.0 | 7.0 | 0.00 | 0.00 | 0.00 | 63 | 1017.5 |
| 20260508142020 | 63 | 222 | 2.0 | 4.0 | 0.00 | 0.00 | 0.00 | 66 | 1017.4 |
| 20260508141025 | 63 | 252 | 4.0 | 8.0 | 0.00 | 0.00 | 0.00 | 65 | 1017.5 |
| 20260508140031 | 62 | 231 | 2.0 | 7.0 | 0.00 | 0.00 | 0.00 | 67 | 1017.5 |
| 20260508135038 | 61 | 193 | 3.0 | 7.0 | 0.00 | 0.00 | 0.00 | 66 | 1017.5 |
| 20260508134023 | 60 | 230 | 1.0 | 7.0 | 0.00 | 0.00 | 0.00 | 67 | 1017.7 |
| 20260508133028 | 60 | 218 | 2.0 | 7.0 | 0.00 | 0.00 | 0.00 | 67 | 1017.6 |
| 20260508132033 | 59 | 190 | 1.0 | 4.0 | 0.00 | 0.00 | 0.00 | 68 | 1017.7 |
| 20260508131021 | 58 | 220 | 1.0 | 4.0 | 0.00 | 0.00 | 0.00 | 68 | 1017.7 |
| 20260508130046 | 57 | 202 | 1.0 | 4.0 | 0.00 | 0.00 | 0.00 | 70 | 1017.6 |
| 20260508125032 | 57 | 178 | 1.0 | 3.0 | 0.00 | 0.00 | 0.00 | 72 | 1017.5 |
| 20260508124019 | 56 | 190 | 1.0 | 3.0 | 0.00 | 0.00 | 0.00 | 73 | 1017.5 |
| 20260508123024 | 54 | 189 | 1.0 | 2.0 | 0.00 | 0.00 | 0.00 | 75 | 1017.6 |
| 20260508122029 | 53 | 153 | 0.0 | 2.0 | 0.00 | 0.00 | 0.00 | 80 | 1017.2 |
| 20260508121016 | 50 | 116 | 1.0 | 2.0 | 0.00 | 0.00 | 0.00 | 83 | 1017.2 |
| 20260508120038 | 49 | 118 | 0.0 | 1.0 | 0.00 | 0.00 | 0.00 | 86 | 1017.2 |
| 20260508115026 | 47 | 103 | 0.0 | 1.0 | 0.00 | 0.00 | 0.00 | 91 | 1017.1 |
| 20260508114031 | 46 | 0.0 | 0.0 | 0.00 | 0.00 | 0.00 | 93 | 1016.8 | |
| 20260508113036 | 45 | 110 | 0.0 | 1.0 | 0.00 | 0.00 | 0.00 | 97 | 1016.6 |
| 20260508112042 | 44 | 0.0 | 0.0 | 0.00 | 0.00 | 0.00 | 98 | 1016.5 | |
| 20260508111030 | 44 | 0.0 | 0.0 | 0.00 | 0.00 | 0.00 | 98 | 1016.3 | |
| 20260508110034 | 44 | 0.0 | 0.0 | 0.00 | 0.00 | 0.00 | 98 | 1016.7 | |
| 20260508105059 | 44 | 0.0 | 0.0 | 0.00 | 0.00 | 0.00 | 98 | 1016.5 | |
| 20260508104027 | 44 | 0.0 | 0.0 | 0.00 | 0.00 | 0.00 | 98 | 1016.5 | |
| 20260508103033 | 44 | 72 | 0.0 | 2.0 | 0.00 | 0.00 | 0.00 | 98 | 1016.6 |
| 20260508102038 | 44 | 96 | 1.0 | 3.0 | 0.00 | 0.00 | 0.00 | 98 | 1016.5 |